User: anonymous   Login
Location: Givatayim
(32.0722°N, 34.8089°E)
Time: 17:45:29
(UTC+03:00)
Language:

ISS - Orbit

View from above orbital plane
View from above orbital plane
View from above satellite
View from above satellite

Ground track
Ground track

The orbit data is extracted from the following two-line orbital elements,

1 25544U 98067A   20095.61316164  .00016717  00000-0  10270-3 0  9023
2 25544  51.6449 352.5415 0003857  82.4607 277.6981 15.48672184 20600
Epoch (UTC): 04 April 2020 14:42:57
Eccentricity: 0.0003857
inclination: 51.6449°
perigee height: 418 km
apogee height: 423 km
right ascension of ascending node: 352.5415°
argument of perigee: 82.4607°
revolutions per day: 15.48672184
mean anomaly at epoch: 277.6981°
orbit number at epoch: 2060

The dashed part of the orbit path shows where the satellite is in the earth's shadow,  

DLR